Weather reports worldwide

Advertisment
Tarbes/Ossun, France (7621): temperature & dewpoint: 10.01.2018 08:00:00 - 16.01.2018 08:00:00 (CET)Tarbes/Ossun, France (7621): temperature 5cm: 10.01.2018 08:00:00 - 16.01.2018 08:00:00 (CET)Tarbes/Ossun, France (7621): temperature -20cm & temperature -100cm: 10.01.2018 08:00:00 - 16.01.2018 08:00:00 (CET)Tarbes/Ossun, France (7621): wind speed & gusts: 10.01.2018 08:00:00 - 16.01.2018 08:00:00 (CET)Tarbes/Ossun, France (7621): wind direction: 10.01.2018 08:00:00 - 16.01.2018 08:00:00 (CET)Tarbes/Ossun, France (7621): reduced air pressure: 10.01.2018 08:00:00 - 16.01.2018 08:00:00 (CET)Tarbes/Ossun, France (7621): visibility: 10.01.2018 08:00:00 - 16.01.2018 08:00:00 (CET)Tarbes/Ossun, France (7621): sunshine duration: 10.01.2018 08:00:00 - 16.01.2018 08:00:00 (CET)Tarbes/Ossun, France (7621): precipitation: 10.01.2018 08:00:00 - 16.01.2018 08:00:00 (CET)
Date & Time tt [°C] td [°C] tt 5cm [°C] tt -20cm [°C] tt -100cm [°C] ff [km/h] ff [kn] fx [km/h] fx [kn] dd ppp [hPa] vv [km] sd [min] rr [mm]
16.01.2018 08:00:00 12,1 8,0 9,7 7,3 9,1 35 19 61 33 WSW 1021,3 57 0 0,0
16.01.2018 07:00:00 11,9 8,0 9,6 7,3 9,1 29 16 77 42 W 1020,7 19 0 0,0
16.01.2018 06:00:00 13,1 7,1 11,0 7,2 9,1 35 19 66 36 WSW 1019,9 10 0 0,0
16.01.2018 05:00:00 13,4 7,2 10,9 7,1 9,1 30 16 71 38 WSW 1019,6 57 0 0,0
16.01.2018 04:00:00 12,9 7,6 10,6 7,1 9,1 34 18 57 31 WSW 1020,0 52 0 0,0
16.01.2018 03:00:00 12,7 7,6 10,8 7,0 9,1 29 16 49 27 WSW 1020,2 60 0 0,0
16.01.2018 02:00:00 12,8 7,5 10,3 7,0 9,1 33 18 59 32 WSW 1020,5 60 0 0,0
16.01.2018 01:00:00 12,2 7,3 9,4 6,9 9,1 28 15 56 30 WSW 1020,7 10 0 0,0
16.01.2018 00:00:00 11,7 7,2 9,2 6,9 9,1 22 12 45 24 WSW 1021,0 10 0 0,0
15.01.2018 23:00:00 11,9 6,4 9,3 6,9 9,1 24 13 46 25 W 1020,9 60 0 0,0
15.01.2018 22:00:00 10,7 5,0 6,9 6,9 9,1 19 10 37 20 WSW 1020,8 60 0 0,0
15.01.2018 21:00:00 9,3 2,4 6,8 6,8 9,1 15 8 21 11 WSW 1020,8 10 0 0,0
15.01.2018 20:00:00 8,1 3,5 6,2 6,8 9,1 11 6 20 11 SSW 1020,4 60 0 0,0
15.01.2018 19:00:00 7,6 4,0 6,2 6,7 9,1 13 7 21 11 S 1020,7 60 0 0,0
15.01.2018 18:00:00 8,5 4,1 6,9 6,6 9,1 9 5 10 6 S 1021,3 10 0 0,0
15.01.2018 17:00:00 9,5 3,9 9,6 6,5 9,1 4 2 9 5 W 1021,0 10 0 0,0
15.01.2018 16:00:00 10,0 3,7 11,2 6,3 9,1 8 4 19 10 SSW 1020,7 10 0 0,0
15.01.2018 15:00:00 10,4 3,0 12,6 6,2 9,1 11 6 26 14 SW 1021,3 10 15 0,0
15.01.2018 14:00:00 10,8 3,3 14,6 6,1 9,1 15 8 27 14 W 1021,5 10 58 0,0
15.01.2018 13:00:00 9,7 4,1 13,2 6,0 9,1 17 9 29 16 W 1022,6 60 49 0,0
15.01.2018 12:00:00 9,9 4,7 10,3 6,0 9,1 13 7 24 13 WSW 1024,0 10 40 0,0
15.01.2018 11:00:00 8,5 3,7 6,7 6,1 9,2 9 5 22 12 S 1024,8 10 60 0,0
15.01.2018 10:00:00 5,9 3,6 2,6 6,1 9,1 10 5 17 9 S 1025,1 60 48 0,0
15.01.2018 09:00:00 3,2 2,2 1,0 6,2 9,2 12 6 21 11 S 1025,0 52 7 0,0
15.01.2018 08:00:00 3,3 2,4 0,1 6,3 9,2 13 7 16 9 S 1024,4 10 0 0,0
15.01.2018 07:00:00 1,8 1,2 -1,7 6,4 9,2 14 8 17 9 S 1024,3 46 0 0,0
15.01.2018 06:00:00 1,0 0,3 -2,1 6,4 9,2 9 5 21 11 SSW 1024,3 20 0 0,0
15.01.2018 05:00:00 1,7 1,0 -1,4 6,5 9,2 15 8 18 10 S 1023,9 10 0 0,0
15.01.2018 04:00:00 2,0 1,1 -0,8 6,5 9,2 12 7 15 8 S 1024,1 30 0 0,0
15.01.2018 03:00:00 2,3 1,1 -0,5 6,5 9,2 9 5 16 9 SW 1023,7 10 0 0,0
15.01.2018 02:00:00 5,3 3,0 3,7 6,5 9,2 13 7 17 9 SSW 1023,1 10 0 0,0
15.01.2018 01:00:00 6,0 3,3 4,4 6,5 9,2 9 5 20 11 WSW 1023,4 10 0 0,0
15.01.2018 00:00:00 5,6 2,9 4,1 6,5 9,2 8 5 18 10 W 1022,9 60 0 0,0
14.01.2018 23:00:00 5,4 2,7 3,4 6,5 9,2 5 3 16 9 SSW 1022,1 10 0 0,0
14.01.2018 22:00:00 5,5 3,0 3,8 6,5 9,2 11 6 17 9 SW 1021,4 60 0 0,0
14.01.2018 21:00:00 5,2 3,0 4,1 6,5 9,2 5 3 21 12 SW 1021,5 60 0 0,0
14.01.2018 20:00:00 5,4 3,1 4,6 6,5 9,2 14 8 31 17 SW 1020,8 60 0 0,0
14.01.2018 19:00:00 5,9 3,2 4,7 6,4 9,2 18 10 41 22 WSW 1019,7 60 0 0,0
14.01.2018 18:00:00 6,0 3,7 5,0 6,3 9,2 8 4 25 14 SW 1019,0 60 0 0,0
14.01.2018 17:00:00 6,1 3,9 5,5 6,2 9,2 16 9 32 17 WSW 1018,2 10 0 0,0
14.01.2018 16:00:00 6,3 4,1 6,3 6,2 9,2 21 11 37 20 WSW 1017,5 60 0 0,2
14.01.2018 15:00:00 6,8 4,5 6,5 6,1 9,3 16 9 33 18 SW 1017,0 57 0 0,2
14.01.2018 14:00:00 6,6 4,3 6,9 6,0 9,3 22 12 33 18 WSW 1017,1 39 10 0,0
14.01.2018 13:00:00 6,6 4,3 6,8 6,0 9,3 18 10 34 19 SW 1017,5 10 0 0,0
14.01.2018 12:00:00 6,1 4,4 5,3 6,0 9,3 22 12 34 18 WSW 1017,8 10 0 0,2
14.01.2018 11:00:00 5,1 3,6 4,5 6,0 9,3 22 12 34 18 SW 1017,7 20 0 0,4
14.01.2018 10:00:00 4,5 3,6 3,7 6,0 9,3 9 5 21 11 SW 1017,3 10 0 0,4
14.01.2018 09:00:00 4,0 3,0 3,5 6,0 9,3 11 6 17 9 SSW 1016,7 34 0 0,4
14.01.2018 08:00:00 4,1 3,1 3,5 6,0 9,3 11 6 16 9 SW 1016,4 17 0 0,4
14.01.2018 07:00:00 4,3 3,0 3,2 6,0 9,3 12 7 18 10 SSW 1015,8 20 0 0,0
14.01.2018 06:00:00 4,1 2,4 3,0 6,0 9,3 9 5 11 6 SSW 1015,6 50 0 0,0
14.01.2018 05:00:00 4,1 2,6 3,0 6,0 9,3 7 4 15 8 S 1015,6 59 0 0,0
14.01.2018 04:00:00 4,0 2,5 3,2 6,1 9,3 13 7 24 13 S 1015,9 30 0 0,4
14.01.2018 03:00:00 4,5 1,9 3,0 6,0 9,3 15 8 22 12 SSW 1015,9 19 0 0,0
14.01.2018 02:00:00 3,9 1,1 2,2 6,1 9,3 9 5 13 7 S 1015,9 10 0 0,0
14.01.2018 01:00:00 3,4 0,8 1,9 6,1 9,3 7 4 12 6 S 1016,1 37 0 0,0
14.01.2018 00:00:00 3,2 0,9 1,5 6,1 9,4 8 4 11 6 SSE 1015,9 20 0 0,0
13.01.2018 23:00:00 3,5 0,7 1,7 6,1 9,4 4 2 8 4 SE 1015,8 18 0 0,0
13.01.2018 22:00:00 3,6 0,5 1,3 6,1 9,4 6 3 10 5 SSE 1015,9 27 0 0,0
13.01.2018 21:00:00 2,7 0,4 1,3 6,1 9,4 7 4 13 7 S 1015,8 34 0 0,0
13.01.2018 20:00:00 4,1 1,1 1,7 6,1 9,4 9 5 12 7 SSE 1015,5 19 0 0,0
13.01.2018 19:00:00 3,7 2,4 1,3 6,0 9,4 6 3 10 6 S 1015,4 19 0 0,0
13.01.2018 18:00:00 4,1 1,8 - - - 4 2 9 5 SW 1015,0 10 - 0,0
13.01.2018 17:00:00 5,4 2,4 4,4 5,9 9,4 3 1 9 5 NNE 1014,8 18 0 0,0
13.01.2018 16:00:00 6,1 2,7 6,1 5,8 9,4 6 3 16 9 NNE 1014,4 23 0 0,0
13.01.2018 15:00:00 6,8 1,1 7,9 5,7 9,4 3 2 10 5 NNE 1014,2 33 0 0,0
13.01.2018 14:00:00 6,5 1,6 8,5 5,7 9,4 9 5 13 7 N 1013,9 36 2 0,0
13.01.2018 13:00:00 6,3 1,8 8,3 5,8 9,4 4 2 10 5 NNE 1014,6 41 6 0,0
13.01.2018 12:00:00 5,4 1,1 5,0 5,8 9,4 2 1 8 4 - 1015,7 10 13 0,0
13.01.2018 11:00:00 2,2 0,6 0,1 5,8 9,4 4 2 6 3 - 1016,6 10 6 0,0
13.01.2018 10:00:00 0,4 -1,0 -4,0 5,9 9,4 3 1 9 5 SE 1016,9 53 16 0,0
13.01.2018 09:00:00 -2,2 -3,2 -4,4 6,0 9,4 6 3 10 5 S 1017,2 60 0 0,0
13.01.2018 08:00:00 -1,2 -2,0 -3,9 6,1 9,4 3 1 7 4 SE 1017,0 60 0 0,0
13.01.2018 07:00:00 -1,7 -2,5 -2,9 6,2 9,4 4 2 6 4 SW 1017,3 60 0 0,0
13.01.2018 06:00:00 -2,0 -2,8 -4,8 6,3 9,4 5 3 9 5 SSE 1018,4 10 0 0,0
13.01.2018 05:00:00 -1,9 -2,5 -7,3 6,5 9,5 5 3 9 5 SE 1019,3 10 0 0,0
13.01.2018 04:00:00 -3,2 -4,0 -7,1 6,6 9,5 3 2 8 5 S 1020,1 46 0 0,0
13.01.2018 03:00:00 -2,1 -2,8 -7,1 6,7 9,5 4 2 10 5 - 1020,9 10 0 0,0
13.01.2018 02:00:00 -1,4 -2,0 -6,1 6,8 9,5 5 3 10 5 SE 1021,4 31 0 0,0
13.01.2018 01:00:00 -2,3 -3,3 -6,0 6,8 9,4 0 0 9 5 N 1022,8 24 0 0,0
13.01.2018 00:00:00 -1,8 -2,9 -5,2 6,9 9,5 3 2 8 4 S 1023,3 22 0 0,0
12.01.2018 23:00:00 -0,4 -1,5 -4,9 7,0 9,5 5 3 9 5 S 1023,6 21 0 0,0
12.01.2018 22:00:00 0,2 -0,8 -4,3 7,1 9,5 2 1 9 5 ESE 1024,4 10 0 0,0
12.01.2018 21:00:00 1,1 0,1 -3,8 7,0 9,4 8 4 10 5 S 1024,7 10 0 0,0
12.01.2018 20:00:00 0,8 -0,5 -3,1 7,0 9,5 6 3 9 5 S 1024,9 44 0 0,0
12.01.2018 19:00:00 1,7 -0,7 -1,9 7,0 9,5 9 5 11 6 SSW 1024,8 58 0 0,0
12.01.2018 18:00:00 6,8 1,3 -0,6 6,8 9,5 7 4 11 6 NE 1024,0 60 11 0,0
12.01.2018 17:00:00 8,7 1,4 6,5 6,7 9,5 8 4 14 7 NNE 1023,8 10 60 0,0
12.01.2018 16:00:00 9,3 2,4 12,6 6,6 9,5 11 6 19 10 NNE 1023,6 58 58 0,0
12.01.2018 15:00:00 10,2 2,1 12,9 6,5 9,5 9 5 21 12 N 1023,6 60 52 0,0
12.01.2018 14:00:00 10,3 2,6 11,6 6,4 9,5 10 6 21 11 N 1023,9 60 52 0,0
12.01.2018 13:00:00 9,8 2,2 14,8 6,4 9,5 5 3 13 7 N 1024,4 10 56 0,0
12.01.2018 12:00:00 9,0 3,0 9,0 6,4 9,5 8 4 15 8 W 1025,5 10 48 0,0
12.01.2018 11:00:00 7,5 3,0 5,4 6,4 9,5 8 5 16 8 SSW 1026,3 60 34 0,0
12.01.2018 10:00:00 5,9 0,0 1,0 6,6 9,5 8 4 20 11 SSE 1026,2 60 58 0,0
12.01.2018 09:00:00 3,3 -0,2 0,2 6,6 9,5 11 6 18 10 SSE 1026,3 10 5 0,0
12.01.2018 08:00:00 2,3 0,2 0,4 6,6 9,5 13 7 19 10 SSW 1026,5 10 0 0,0
12.01.2018 07:00:00 2,7 0,1 0,1 6,7 9,5 8 5 23 12 S 1026,2 60 0 0,0
12.01.2018 06:00:00 1,7 0,7 - - - 13 7 16 9 S 1026,3 60 - 0,0
12.01.2018 05:00:00 1,8 0,6 -1,6 7,0 9,5 16 9 20 11 S 1025,9 60 0 0,0
12.01.2018 04:00:00 1,1 0,4 -2,5 7,0 9,5 11 6 19 10 S 1026,4 10 0 0,0
12.01.2018 03:00:00 0,7 0,1 -3,5 7,1 9,5 9 5 14 8 S 1026,5 38 0 0,0
12.01.2018 02:00:00 -0,3 -1,0 -3,2 7,2 9,5 10 5 13 7 S 1026,0 21 0 0,0
12.01.2018 01:00:00 0,9 0,2 -2,3 7,2 9,5 9 5 14 8 S 1025,5 10 0 0,0
12.01.2018 00:00:00 1,5 0,5 -0,9 7,3 9,5 10 5 15 8 SSW 1025,2 60 0 0,0
11.01.2018 23:00:00 3,9 2,3 1,5 7,4 9,5 9 5 19 10 SSW 1025,0 10 0 0,0
11.01.2018 22:00:00 2,1 1,2 -0,5 7,4 9,5 9 5 12 6 S 1024,5 60 0 0,0
11.01.2018 21:00:00 2,2 0,7 -1,2 7,4 9,5 8 4 15 8 SSW 1023,7 60 0 0,0
11.01.2018 20:00:00 3,8 1,5 1,2 7,4 9,5 11 6 27 15 WSW 1022,7 10 0 0,0
11.01.2018 19:00:00 4,8 2,7 3,5 7,4 9,5 11 6 22 12 SW 1022,0 10 0 0,0
11.01.2018 18:00:00 4,8 2,8 3,8 7,3 9,5 12 7 30 16 W 1021,7 54 0 0,0
11.01.2018 17:00:00 5,7 3,0 5,2 7,3 9,6 18 10 39 21 W 1020,6 47 11 0,0
11.01.2018 16:00:00 6,5 3,1 7,2 7,2 9,6 18 10 - - W 1019,7 60 28 0,0
11.01.2018 15:00:00 6,8 5,1 6,5 7,2 9,5 17 9 34 19 W 1019,0 19 6 0,2
11.01.2018 14:00:00 6,8 3,9 7,4 7,1 9,5 15 8 45 24 W 1018,8 60 7 0,0
11.01.2018 13:00:00 7,2 2,5 7,8 7,2 9,5 22 12 41 22 WSW 1018,5 55 35 0,2
11.01.2018 12:00:00 6,6 3,0 7,0 7,2 9,5 21 11 37 20 WSW 1019,1 10 48 0,0
11.01.2018 11:00:00 6,1 2,9 5,2 7,2 9,5 23 12 40 21 W 1019,0 52 36 0,0
11.01.2018 10:00:00 5,7 2,5 2,5 7,3 9,5 14 7 24 13 WSW 1018,7 57 4 0,0
11.01.2018 09:00:00 4,0 1,9 2,3 7,4 9,6 12 6 20 11 SW 1018,0 60 0 0,0
11.01.2018 08:00:00 4,5 1,7 2,5 7,4 9,5 10 6 24 13 WSW 1017,4 38 0 0,0
11.01.2018 07:00:00 5,0 1,7 2,1 7,5 9,6 13 7 33 18 W 1016,6 10 0 0,0
11.01.2018 06:00:00 4,6 0,4 0,7 7,6 9,6 10 6 19 10 WSW 1016,1 60 0 0,0
11.01.2018 05:00:00 4,5 0,1 -0,6 7,6 9,6 13 7 20 11 WSW 1016,1 60 0 0,0
11.01.2018 04:00:00 3,8 1,7 0,3 7,7 9,6 8 4 15 8 SSW 1016,4 60 0 0,0
11.01.2018 03:00:00 3,5 2,6 1,0 7,8 9,6 8 4 24 13 SSW 1016,8 10 0 0,0
11.01.2018 02:00:00 5,0 3,5 3,9 7,8 9,6 14 7 36 19 W 1016,6 51 0 0,2
11.01.2018 01:00:00 6,0 3,2 3,7 7,8 9,6 17 9 32 17 WNW 1016,7 39 0 0,0
11.01.2018 00:00:00 6,4 3,0 4,2 7,9 9,6 31 17 53 28 W 1016,4 32 0 0,2
10.01.2018 23:00:00 5,1 3,4 4,2 7,9 9,6 16 9 46 25 SSW 1016,2 60 0 0,6
10.01.2018 22:00:00 5,2 3,7 4,6 7,9 9,6 26 14 49 26 WSW 1016,6 8 0 2,1
10.01.2018 21:00:00 6,1 4,4 5,4 7,9 9,6 31 17 63 34 W 1015,8 7 0 3,2
10.01.2018 20:00:00 7,4 5,4 6,0 7,8 9,6 4 2 46 25 SW 1013,7 22 0 2,4
10.01.2018 19:00:00 9,4 4,4 4,4 7,7 9,6 24 13 41 22 W 1012,7 10 0 0,0
10.01.2018 18:00:00 7,6 4,5 4,3 7,6 9,6 8 5 10 5 SW 1012,1 55 0 0,0
10.01.2018 17:00:00 10,4 3,4 6,3 7,5 9,6 2 1 8 4 NE 1011,8 60 4 0,0
10.01.2018 16:00:00 12,2 3,7 15,5 7,4 9,6 5 3 11 6 NNE 1011,4 59 49 0,0
10.01.2018 15:00:00 12,3 3,5 19,8 7,3 9,6 6 4 19 10 NW 1011,5 60 60 0,0
10.01.2018 14:00:00 13,1 3,5 17,4 7,2 9,6 5 3 17 9 ESE 1011,5 18 57 0,0
10.01.2018 13:00:00 12,4 3,9 14,4 7,1 9,6 3 2 10 6 NNW 1012,8 17 47 0,0
10.01.2018 12:00:00 10,3 3,8 10,8 7,1 9,6 2 1 8 4 NE 1014,5 60 0 0,0
10.01.2018 11:00:00 8,5 4,9 8,3 7,1 9,6 3 1 14 8 WNW 1015,3 55 11 0,0
10.01.2018 10:00:00 7,2 3,6 3,6 7,2 9,7 7 4 16 9 SSE 1015,2 60 9 0,0
10.01.2018 09:00:00 5,4 2,7 - - - 8 4 16 9 S 1015,4 10 - 0,0
10.01.2018 08:00:00 5,9 3,1 4,3 7,2 9,6 15 8 26 14 S 1015,2 10 0 0,0

tt = temperature
td = dewpoint
tt 5cm = temperature 5cm
tt -20cm = temperature -20cm
tt -100cm = temperature -100cm
ff = wind speed
fx = gusts
dd = wind direction
ppp = reduced air pressure
vv = visibility
sd = sunshine duration
rr = precipitation

Next stations